Wetterdaten: Mittwoch, 07.01.2015
Datum Zeit Temp. A. Feuchte A. Luftdruck Regen Wind Richtung Richtung Sonnenschein ET UV Solar Taupunkt Windchill Windben Empfang
07.01.2015 00:00 -2,2 C 78 % 1027,3 hPa 0,0 l/m 0,0 km/h (0 Bft) S 181 0 min 0,000 mm 0,0 UV-I 0 W/m -5,5 C -2,2 C 0,0 km/h (0 Bft) 0,00 %
07.01.2015 00:15 -2,4 C 79 % 1027,0 hPa 0,0 l/m 2,2 km/h (1 Bft) O-SO 110 0 min 0,000 mm 0,0 UV-I 0 W/m -5,5 C -2,4 C 4,0 km/h (1 Bft) 0,00 %
07.01.2015 00:30 -2,4 C 78 % 1027,2 hPa 0,0 l/m 0,4 km/h (0 Bft) S 173 0 min 0,000 mm 0,0 UV-I 0 W/m -5,7 C -2,4 C 4,0 km/h (1 Bft) 0,00 %
07.01.2015 00:45 -2,6 C 75 % 1027,4 hPa 0,0 l/m 0,0 km/h (0 Bft) O 79 0 min 0,000 mm 0,0 UV-I 0 W/m -6,4 C -2,6 C 0,0 km/h (0 Bft) 0,00 %
07.01.2015 01:00 -2,7 C 76 % 1027,6 hPa 0,0 l/m 0,0 km/h (0 Bft) S 184 0 min 0,000 mm 0,0 UV-I 0 W/m -6,3 C -2,7 C 0,0 km/h (0 Bft) 0,00 %
07.01.2015 01:15 -2,6 C 75 % 1027,5 hPa 0,0 l/m 0,0 km/h (0 Bft) S-SW 205 0 min 0,000 mm 0,0 UV-I 0 W/m -6,4 C -2,6 C 0,0 km/h (0 Bft) 0,00 %
07.01.2015 01:30 -2,6 C 75 % 1027,6 hPa 0,0 l/m 0,4 km/h (0 Bft) O-NO 77 0 min 0,000 mm 0,0 UV-I 0 W/m -6,4 C -2,6 C 4,0 km/h (1 Bft) 0,00 %
07.01.2015 01:45 -2,4 C 79 % 1027,5 hPa 0,0 l/m 0,0 km/h (0 Bft) S 191 0 min 0,000 mm 0,0 UV-I 0 W/m -5,5 C -2,4 C 0,0 km/h (0 Bft) 0,00 %
07.01.2015 02:00 -2,6 C 74 % 1027,8 hPa 0,0 l/m 0,0 km/h (0 Bft) S-SW 198 0 min 0,000 mm 0,0 UV-I 0 W/m -6,6 C -2,6 C 0,0 km/h (0 Bft) 0,00 %
07.01.2015 02:15 -2,5 C 77 % 1028,1 hPa 0,0 l/m 0,0 km/h (0 Bft) S-SW 213 0 min 0,000 mm 0,0 UV-I 0 W/m -6,0 C -2,5 C 0,0 km/h (0 Bft) 0,00 %
07.01.2015 02:30 -2,6 C 73 % 1028,2 hPa 0,0 l/m 0,0 km/h (0 Bft) S-SO 150 0 min 0,000 mm 0,0 UV-I 0 W/m -6,8 C -2,6 C 0,0 km/h (0 Bft) 0,00 %
07.01.2015 02:45 -2,6 C 73 % 1028,1 hPa 0,0 l/m 0,0 km/h (0 Bft) S-SW 194 0 min 0,000 mm 0,0 UV-I 0 W/m -6,8 C -2,6 C 0,0 km/h (0 Bft) 0,00 %
07.01.2015 03:00 -2,7 C 73 % 1028,3 hPa 0,0 l/m 0,0 km/h (0 Bft) S-SO 150 0 min 0,000 mm 0,0 UV-I 0 W/m -6,9 C -2,7 C 0,0 km/h (0 Bft) 0,00 %
07.01.2015 03:15 -2,9 C 73 % 1028,2 hPa 0,0 l/m 0,0 km/h (0 Bft) S 173 0 min 0,000 mm 0,0 UV-I 0 W/m -7,0 C -2,9 C 0,0 km/h (0 Bft) 0,00 %
07.01.2015 03:30 -3,1 C 74 % 1028,6 hPa 0,0 l/m 0,0 km/h (0 Bft) S-SW 202 0 min 0,000 mm 0,0 UV-I 0 W/m -7,1 C -3,1 C 0,0 km/h (0 Bft) 0,00 %
07.01.2015 03:45 -3,2 C 76 % 1028,6 hPa 0,0 l/m 0,0 km/h (0 Bft) SW 228 0 min 0,000 mm 0,0 UV-I 0 W/m -6,8 C -3,2 C 0,0 km/h (0 Bft) 0,00 %
07.01.2015 04:00 -3,0 C 77 % 1028,4 hPa 0,0 l/m 0,0 km/h (0 Bft) S-SW 210 0 min 0,000 mm 0,0 UV-I 0 W/m -6,4 C -3,0 C 0,0 km/h (0 Bft) 0,00 %
07.01.2015 04:15 -3,0 C 77 % 1028,7 hPa 0,0 l/m 0,0 km/h (0 Bft) SW 236 0 min 0,000 mm 0,0 UV-I 0 W/m -6,4 C -3,0 C 0,0 km/h (0 Bft) 0,00 %
07.01.2015 04:30 -2,9 C 78 % 1028,6 hPa 0,0 l/m 0,0 km/h (0 Bft) S-SW 201 0 min 0,000 mm 0,0 UV-I 0 W/m -6,2 C -2,9 C 0,0 km/h (0 Bft) 0,00 %
07.01.2015 04:45 -2,8 C 78 % 1028,4 hPa 0,0 l/m 0,0 km/h (0 Bft) S-SW 194 0 min 0,000 mm 0,0 UV-I 0 W/m -6,1 C -2,8 C 0,0 km/h (0 Bft) 0,00 %
07.01.2015 05:00 -2,8 C 78 % 1028,9 hPa 0,0 l/m 0,0 km/h (0 Bft) SW 216 0 min 0,000 mm 0,0 UV-I 0 W/m -6,1 C -2,8 C 0,0 km/h (0 Bft) 0,00 %
07.01.2015 05:15 -2,9 C 78 % 1028,8 hPa 0,0 l/m 0,0 km/h (0 Bft) S 185 0 min 0,000 mm 0,0 UV-I 0 W/m -6,2 C -2,9 C 0,0 km/h (0 Bft) 0,00 %
07.01.2015 05:30 -3,0 C 78 % 1028,7 hPa 0,0 l/m 0,0 km/h (0 Bft) SW 224 0 min 0,000 mm 0,0 UV-I 0 W/m -6,3 C -3,0 C 0,0 km/h (0 Bft) 0,00 %
07.01.2015 05:45 -3,2 C 78 % 1029,0 hPa 0,0 l/m 0,0 km/h (0 Bft) O 99 0 min 0,000 mm 0,0 UV-I 0 W/m -6,5 C -3,2 C 0,0 km/h (0 Bft) 0,00 %
07.01.2015 06:00 -3,1 C 78 % 1028,9 hPa 0,0 l/m 0,0 km/h (0 Bft) S-SW 195 0 min 0,000 mm 0,0 UV-I 0 W/m -6,4 C -3,1 C 0,0 km/h (0 Bft) 0,00 %
07.01.2015 06:15 -2,9 C 79 % 1028,9 hPa 0,0 l/m 0,0 km/h (0 Bft) S-SW 201 0 min 0,000 mm 0,0 UV-I 0 W/m -6,0 C -2,9 C 0,0 km/h (0 Bft) 0,00 %
07.01.2015 06:30 -2,8 C 79 % 1029,1 hPa 0,0 l/m 0,0 km/h (0 Bft) S-SW 208 0 min 0,000 mm 0,0 UV-I 0 W/m -5,9 C -2,8 C 0,0 km/h (0 Bft) 0,00 %
07.01.2015 06:45 -2,8 C 79 % 1029,2 hPa 0,0 l/m 0,0 km/h (0 Bft) W-SW 253 0 min 0,000 mm 0,0 UV-I 0 W/m -5,9 C -2,8 C 0,0 km/h (0 Bft) 0,00 %
07.01.2015 07:00 -2,7 C 79 % 1029,3 hPa 0,0 l/m 0,0 km/h (0 Bft) SW 214 0 min 0,000 mm 0,0 UV-I 0 W/m -5,8 C -2,7 C 0,0 km/h (0 Bft) 0,00 %
07.01.2015 07:15 -2,6 C 79 % 1029,5 hPa 0,0 l/m 0,0 km/h (0 Bft) S-SW 213 0 min 0,000 mm 0,0 UV-I 0 W/m -5,7 C -2,6 C 0,0 km/h (0 Bft) 0,00 %
07.01.2015 07:30 -2,5 C 83 % 1029,5 hPa 0,0 l/m 0,0 km/h (0 Bft) S-SW 213 0 min 0,000 mm 0,0 UV-I 0 W/m -5,0 C -2,5 C 0,0 km/h (0 Bft) 0,00 %
07.01.2015 07:45 -2,4 C 83 % 1029,5 hPa 0,0 l/m 0,0 km/h (0 Bft) S-SW 205 0 min 0,000 mm 0,0 UV-I 0 W/m -4,9 C -2,4 C 0,0 km/h (0 Bft) 0,00 %
07.01.2015 08:00 -2,4 C 83 % 1029,7 hPa 0,0 l/m 0,0 km/h (0 Bft) SW 233 0 min 0,000 mm 0,0 UV-I 0 W/m -4,9 C -2,4 C 0,0 km/h (0 Bft) 0,00 %
07.01.2015 08:15 -2,4 C 83 % 1029,9 hPa 0,0 l/m 0,0 km/h (0 Bft) SW 220 0 min 0,000 mm 0,0 UV-I 0 W/m -4,9 C -2,4 C 0,0 km/h (0 Bft) 0,00 %
07.01.2015 08:30 -2,3 C 83 % 1029,9 hPa 0,0 l/m 0,0 km/h (0 Bft) W-SW 243 0 min 0,000 mm 0,0 UV-I 1 W/m -4,8 C -2,3 C 0,0 km/h (0 Bft) 0,00 %
07.01.2015 08:45 -2,3 C 83 % 1030,3 hPa 0,0 l/m 0,0 km/h (0 Bft) SW 235 0 min 0,000 mm 0,0 UV-I 6 W/m -4,8 C -2,3 C 0,0 km/h (0 Bft) 0,00 %
07.01.2015 09:00 -2,2 C 83 % 1030,1 hPa 0,0 l/m 0,0 km/h (0 Bft) SW 225 0 min 0,000 mm 1,0 UV-I 26 W/m -4,7 C -2,2 C 0,0 km/h (0 Bft) 0,00 %
07.01.2015 09:15 -1,9 C 83 % 1030,4 hPa 0,0 l/m 0,0 km/h (0 Bft) SW 222 0 min 0,000 mm 1,0 UV-I 64 W/m -4,4 C -1,9 C 0,0 km/h (0 Bft) 0,00 %
07.01.2015 09:30 -1,7 C 82 % 1030,4 hPa 0,0 l/m 0,0 km/h (0 Bft) W-SW 250 0 min 0,000 mm 1,0 UV-I 37 W/m -4,4 C -1,7 C 0,0 km/h (0 Bft) 0,00 %
07.01.2015 09:45 -1,6 C 82 % 1030,5 hPa 0,0 l/m 0,0 km/h (0 Bft) S-SW 201 0 min 0,000 mm 0,0 UV-I 37 W/m -4,3 C -1,6 C 0,0 km/h (0 Bft) 0,00 %
07.01.2015 10:00 -1,5 C 81 % 1030,8 hPa 0,0 l/m 0,0 km/h (0 Bft) W-NW 293 0 min 0,000 mm 1,0 UV-I 37 W/m -4,3 C -1,5 C 0,0 km/h (0 Bft) 0,00 %
07.01.2015 10:15 -1,7 C 81 % 1031,0 hPa 0,0 l/m 0,0 km/h (0 Bft) NW 321 0 min 0,000 mm 0,0 UV-I 25 W/m -4,5 C -1,7 C 0,0 km/h (0 Bft) 0,00 %
07.01.2015 10:30 -1,8 C 81 % 1031,2 hPa 0,0 l/m 0,4 km/h (0 Bft) W-SW 254 0 min 0,000 mm 1,0 UV-I 45 W/m -4,6 C -1,8 C 4,0 km/h (1 Bft) 0,00 %
07.01.2015 10:45 -1,6 C 80 % 1030,8 hPa 0,0 l/m 0,0 km/h (0 Bft) W-SW 253 0 min 0,000 mm 1,0 UV-I 50 W/m -4,6 C -1,6 C 0,0 km/h (0 Bft) 0,00 %
07.01.2015 11:00 -1,0 C 79 % 1030,6 hPa 0,0 l/m 0,0 km/h (0 Bft) S-SW 211 0 min 0,000 mm 1,0 UV-I 62 W/m -4,2 C -1,0 C 0,0 km/h (0 Bft) 0,00 %
07.01.2015 11:15 -0,9 C 76 % 1030,5 hPa 0,0 l/m 0,0 km/h (0 Bft) S 175 0 min 0,000 mm 1,0 UV-I 45 W/m -4,6 C -0,9 C 0,0 km/h (0 Bft) 0,00 %
07.01.2015 11:30 -1,1 C 77 % 1030,7 hPa 0,0 l/m 0,0 km/h (0 Bft) SW 224 0 min 0,000 mm 1,0 UV-I 47 W/m -4,6 C -1,1 C 0,0 km/h (0 Bft) 0,00 %
07.01.2015 11:45 -1,0 C 76 % 1030,3 hPa 0,0 l/m 0,0 km/h (0 Bft) SW 221 0 min 0,000 mm 1,0 UV-I 60 W/m -4,7 C -1,0 C 0,0 km/h (0 Bft) 0,00 %
07.01.2015 12:00 -0,3 C 74 % 1030,3 hPa 0,0 l/m 0,0 km/h (0 Bft) S-SW 197 0 min 0,000 mm 1,0 UV-I 86 W/m -4,4 C -0,3 C 0,0 km/h (0 Bft) 0,00 %
07.01.2015 12:15 -0,3 C 74 % 1030,0 hPa 0,0 l/m 0,0 km/h (0 Bft) SW 222 0 min 0,000 mm 1,0 UV-I 73 W/m -4,4 C -0,3 C 0,0 km/h (0 Bft) 0,00 %
07.01.2015 12:30 -0,3 C 75 % 1029,8 hPa 0,0 l/m 0,0 km/h (0 Bft) S 184 0 min 0,000 mm 1,0 UV-I 81 W/m -4,2 C -0,3 C 0,0 km/h (0 Bft) 0,00 %
07.01.2015 12:45 -0,1 C 75 % 1029,9 hPa 0,0 l/m 0,0 km/h (0 Bft) SW 214 0 min 0,000 mm 1,0 UV-I 79 W/m -4,0 C -0,1 C 0,0 km/h (0 Bft) 0,00 %
07.01.2015 13:00 -0,3 C 76 % 1029,8 hPa 0,0 l/m 0,0 km/h (0 Bft) S 176 0 min 0,000 mm 1,0 UV-I 76 W/m -4,0 C -0,3 C 0,0 km/h (0 Bft) 0,00 %
07.01.2015 13:15 -0,1 C 77 % 1029,4 hPa 0,0 l/m 0,0 km/h (0 Bft) W-SW 244 0 min 0,000 mm 1,0 UV-I 47 W/m -3,6 C -0,1 C 0,0 km/h (0 Bft) 0,00 %
07.01.2015 13:30 -0,1 C 78 % 1029,7 hPa 0,3 l/m 0,0 km/h (0 Bft) SW 235 0 min 0,000 mm 1,0 UV-I 45 W/m -3,5 C -0,1 C 0,0 km/h (0 Bft) 0,00 %
07.01.2015 13:45 -0,1 C 78 % 1029,6 hPa 0,0 l/m 0,0 km/h (0 Bft) S-SW 199 0 min 0,000 mm 1,0 UV-I 46 W/m -3,5 C -0,1 C 0,0 km/h (0 Bft) 0,00 %
07.01.2015 14:00 -0,2 C 79 % 1029,9 hPa 0,0 l/m 0,0 km/h (0 Bft) SW 225 0 min 0,000 mm 1,0 UV-I 47 W/m -3,4 C -0,2 C 0,0 km/h (0 Bft) 0,00 %
07.01.2015 14:15 0,0 C 80 % 1029,9 hPa 0,0 l/m 0,0 km/h (0 Bft) SW 224 0 min 0,000 mm 1,0 UV-I 60 W/m -3,0 C 0,0 C 0,0 km/h (0 Bft) 0,00 %
07.01.2015 14:30 0,1 C 80 % 1029,9 hPa 0,0 l/m 0,0 km/h (0 Bft) W 275 0 min 0,000 mm 1,0 UV-I 57 W/m -2,9 C 0,1 C 0,0 km/h (0 Bft) 0,00 %
07.01.2015 14:45 0,0 C 80 % 1030,1 hPa 0,0 l/m 0,0 km/h (0 Bft) SW 221 0 min 0,000 mm 1,0 UV-I 33 W/m -3,0 C 0,0 C 0,0 km/h (0 Bft) 0,00 %
07.01.2015 15:00 0,1 C 80 % 1030,2 hPa 0,0 l/m 0,0 km/h (0 Bft) S-SW 203 0 min 0,000 mm 0,0 UV-I 41 W/m -2,9 C 0,1 C 0,0 km/h (0 Bft) 0,00 %
07.01.2015 15:15 0,1 C 81 % 1030,4 hPa 0,0 l/m 0,0 km/h (0 Bft) S-SW 202 0 min 0,000 mm 0,0 UV-I 21 W/m -2,8 C 0,1 C 0,0 km/h (0 Bft) 0,00 %
07.01.2015 15:30 0,2 C 81 % 1030,8 hPa 0,0 l/m 0,4 km/h (0 Bft) SW 216 0 min 0,000 mm 0,0 UV-I 17 W/m -2,7 C 0,2 C 4,0 km/h (1 Bft) 0,00 %
07.01.2015 15:45 0,3 C 81 % 1031,0 hPa 0,0 l/m 0,4 km/h (0 Bft) W-SW 251 0 min 0,000 mm 0,0 UV-I 4 W/m -2,6 C 0,3 C 4,0 km/h (1 Bft) 0,00 %
07.01.2015 16:00 0,3 C 82 % 1031,0 hPa 0,0 l/m 0,0 km/h (0 Bft) W-SW 251 0 min 0,000 mm 0,0 UV-I 0 W/m -2,4 C 0,3 C 0,0 km/h (0 Bft) 0,00 %
07.01.2015 16:15 0,4 C 82 % 1031,0 hPa 0,0 l/m 0,4 km/h (0 Bft) W-SW 250 0 min 0,000 mm 0,0 UV-I 0 W/m -2,3 C 0,4 C 4,0 km/h (1 Bft) 0,00 %
07.01.2015 16:30 0,4 C 82 % 1031,0 hPa 0,0 l/m 0,0 km/h (0 Bft) SW 229 0 min 0,000 mm 0,0 UV-I 0 W/m -2,3 C 0,4 C 0,0 km/h (0 Bft) 0,00 %
07.01.2015 16:45 0,4 C 81 % 1031,1 hPa 0,0 l/m 0,0 km/h (0 Bft) W-SW 241 0 min 0,000 mm 0,0 UV-I 0 W/m -2,5 C 0,4 C 0,0 km/h (0 Bft) 0,00 %
07.01.2015 17:00 0,5 C 82 % 1031,3 hPa 0,0 l/m 0,0 km/h (0 Bft) W-SW 253 0 min 0,000 mm 0,0 UV-I 0 W/m -2,2 C 0,5 C 0,0 km/h (0 Bft) 0,00 %
07.01.2015 17:15 0,5 C 82 % 1031,4 hPa 0,0 l/m 0,0 km/h (0 Bft) SW 228 0 min 0,000 mm 0,0 UV-I 0 W/m -2,2 C 0,5 C 0,0 km/h (0 Bft) 0,00 %
07.01.2015 17:30 0,5 C 82 % 1031,4 hPa 0,0 l/m 0,0 km/h (0 Bft) S-SW 213 0 min 0,000 mm 0,0 UV-I 0 W/m -2,2 C 0,5 C 0,0 km/h (0 Bft) 0,00 %
07.01.2015 17:45 0,5 C 82 % 1031,4 hPa 0,0 l/m 0,0 km/h (0 Bft) W-SW 252 0 min 0,000 mm 0,0 UV-I 0 W/m -2,2 C 0,5 C 0,0 km/h (0 Bft) 0,00 %
07.01.2015 18:00 0,6 C 82 % 1031,6 hPa 0,0 l/m 0,7 km/h (0 Bft) SW 222 0 min 0,000 mm 0,0 UV-I 0 W/m -2,1 C 0,6 C 4,0 km/h (1 Bft) 0,00 %
07.01.2015 18:15 0,6 C 82 % 1031,6 hPa 0,0 l/m 0,0 km/h (0 Bft) W-SW 253 0 min 0,000 mm 0,0 UV-I 0 W/m -2,1 C 0,6 C 0,0 km/h (0 Bft) 0,00 %
07.01.2015 18:30 0,6 C 82 % 1031,8 hPa 0,0 l/m 0,4 km/h (0 Bft) W-SW 253 0 min 0,000 mm 0,0 UV-I 0 W/m -2,1 C 0,6 C 4,0 km/h (1 Bft) 0,00 %
07.01.2015 18:45 0,6 C 82 % 1031,7 hPa 0,0 l/m 0,0 km/h (0 Bft) SW 231 0 min 0,000 mm 0,0 UV-I 0 W/m -2,1 C 0,6 C 0,0 km/h (0 Bft) 0,00 %
07.01.2015 19:00 0,5 C 82 % 1032,2 hPa 0,0 l/m 0,0 km/h (0 Bft) SW 215 0 min 0,000 mm 0,0 UV-I 0 W/m -2,2 C 0,5 C 0,0 km/h (0 Bft) 0,00 %
07.01.2015 19:15 0,6 C 82 % 1031,9 hPa 0,0 l/m 0,0 km/h (0 Bft) W-SW 253 0 min 0,000 mm 0,0 UV-I 0 W/m -2,1 C 0,6 C 0,0 km/h (0 Bft) 0,00 %
07.01.2015 19:30 0,6 C 82 % 1032,2 hPa 0,0 l/m 0,4 km/h (0 Bft) W-SW 241 0 min 0,000 mm 0,0 UV-I 0 W/m -2,1 C 0,6 C 4,0 km/h (1 Bft) 0,00 %
07.01.2015 19:45 0,6 C 82 % 1032,3 hPa 0,0 l/m 0,0 km/h (0 Bft) W-SW 252 0 min 0,000 mm 0,0 UV-I 0 W/m -2,1 C 0,6 C 0,0 km/h (0 Bft) 0,00 %
07.01.2015 20:00 0,6 C 82 % 1032,0 hPa 0,0 l/m 0,0 km/h (0 Bft) SW 216 0 min 0,000 mm 0,0 UV-I 0 W/m -2,1 C 0,6 C 0,0 km/h (0 Bft) 0,00 %
07.01.2015 20:15 0,6 C 81 % 1032,2 hPa 0,0 l/m 0,0 km/h (0 Bft) SW 222 0 min 0,000 mm 0,0 UV-I 0 W/m -2,3 C 0,6 C 0,0 km/h (0 Bft) 0,00 %
07.01.2015 20:30 0,6 C 81 % 1032,3 hPa 0,0 l/m 0,0 km/h (0 Bft) SW 235 0 min 0,000 mm 0,0 UV-I 0 W/m -2,3 C 0,6 C 0,0 km/h (0 Bft) 0,00 %
07.01.2015 20:45 0,5 C 81 % 1032,7 hPa 0,0 l/m 0,0 km/h (0 Bft) SW 214 0 min 0,000 mm 0,0 UV-I 0 W/m -2,4 C 0,5 C 0,0 km/h (0 Bft) 0,00 %
07.01.2015 21:00 0,5 C 81 % 1032,7 hPa 0,0 l/m 0,0 km/h (0 Bft) W-SW 253 0 min 0,000 mm 0,0 UV-I 0 W/m -2,4 C 0,5 C 0,0 km/h (0 Bft) 0,00 %
07.01.2015 21:15 0,5 C 81 % 1032,6 hPa 0,0 l/m 0,0 km/h (0 Bft) SW 219 0 min 0,000 mm 0,0 UV-I 0 W/m -2,4 C 0,5 C 0,0 km/h (0 Bft) 0,00 %
07.01.2015 21:30 0,5 C 81 % 1032,7 hPa 0,0 l/m 0,0 km/h (0 Bft) S 188 0 min 0,000 mm 0,0 UV-I 0 W/m -2,4 C 0,5 C 0,0 km/h (0 Bft) 0,00 %
07.01.2015 21:45 0,4 C 81 % 1032,7 hPa 0,0 l/m 0,0 km/h (0 Bft) S-SW 205 0 min 0,000 mm 0,0 UV-I 0 W/m -2,5 C 0,4 C 0,0 km/h (0 Bft) 0,00 %
07.01.2015 22:00 0,4 C 82 % 1032,7 hPa 0,3 l/m 0,0 km/h (0 Bft) S-SW 199 0 min 0,000 mm 0,0 UV-I 0 W/m -2,3 C 0,4 C 0,0 km/h (0 Bft) 0,00 %
07.01.2015 22:15 0,4 C 82 % 1032,5 hPa 0,0 l/m 0,0 km/h (0 Bft) SW 220 0 min 0,000 mm 0,0 UV-I 0 W/m -2,3 C 0,4 C 0,0 km/h (0 Bft) 0,00 %
07.01.2015 22:30 0,4 C 82 % 1032,6 hPa 0,0 l/m 0,0 km/h (0 Bft) S-SW 192 0 min 0,000 mm 0,0 UV-I 0 W/m -2,3 C 0,4 C 0,0 km/h (0 Bft) 0,00 %
07.01.2015 22:45 0,4 C 82 % 1032,8 hPa 0,0 l/m 0,0 km/h (0 Bft) SW 222 0 min 0,000 mm 0,0 UV-I 0 W/m -2,3 C 0,4 C 0,0 km/h (0 Bft) 0,00 %
07.01.2015 23:00 0,4 C 82 % 1032,8 hPa 0,0 l/m 0,0 km/h (0 Bft) SO 139 0 min 0,000 mm 0,0 UV-I 0 W/m -2,3 C 0,4 C 0,0 km/h (0 Bft) 0,00 %
07.01.2015 23:15 0,2 C 82 % 1032,6 hPa 0,0 l/m 0,0 km/h (0 Bft) S-SW 205 0 min 0,000 mm 0,0 UV-I 0 W/m -2,5 C 0,2 C 0,0 km/h (0 Bft) 0,00 %
07.01.2015 23:30 0,2 C 82 % 1032,4 hPa 0,0 l/m 0,0 km/h (0 Bft) S-SW 207 0 min 0,000 mm 0,0 UV-I 0 W/m -2,5 C 0,2 C 0,0 km/h (0 Bft) 0,00 %
07.01.2015 23:45 0,1 C 82 % 1032,4 hPa 0,0 l/m 0,0 km/h (0 Bft) S-SW 210 0 min 0,000 mm 0,0 UV-I 0 W/m -2,6 C 0,1 C 0,0 km/h (0 Bft) 0,00 %
_ Min-Zeit 03:45 02:30 00:15 - 00:00 - - - - - - 03:30 03:45 00:00 00:00
Minimum _ -3,2 C 73 % 1027,0 hPa - 0,0 km/h (0 Bft) - - - - - - -7,1 C -3,2 C 0,0 km/h (0 Bft) 0,00 %
_ Max-Zeit 18:00 07:30 22:45 13:30 00:15 - - 00:00 00:00 09:00 12:00 18:00 18:00 00:15 00:00
Maximum _ 0,6 C 83 % 1032,8 hPa 0,3 l/m 2,2 km/h
O-SO (1 Bft)
- - 0 min 0,000 mm 1,0 UV-I 86 W/m -2,1 C 0,6 C 4,0 km/h
O-SO (1 Bft)
0,00 %
Durchschnitt _ -1,0 C 79 % 1030,3 hPa #0,6 l/m 0,1 km/h (0 Bft) O-SO - #0 min. #0,000 mm 1,0 UV-I 45 W/m -4,1 C -1,0 C 0,4 km/h (0 Bft) 0,00 %